Location: Newark
(29.9790°N, 31.1340°E)
Time: 01:17:23
(UTC+00:00)

Tiros 1 - Pass Details

Date: 21 January 2020
Orbit: 631 x 664 km, 48.4° (Epoch: 25 February)

Event Time Altitude Azimuth Distance (km) Brightness Sun altitude
Rises 16:07:37 0° 324° (NW) 2,978 10.8 -10.0°
Reaches altitude 10° 16:12:04 10° 2° (N) 2,073 9.6 -10.9°
Maximum altitude 16:13:10 11° 16° (NNE) 2,027 9.4 -11.1°
Drops below altitude 10° 16:14:17 10° 29° (NNE) 2,075 9.3 -11.4°
Enters shadow 16:14:51 - 36° (NE) 2,135 9.3 -11.5°
